Burlington, VT

11:59 AM EST on November 13, 2019 (GMT -0500)
Burlington International

Weather History for KBTV - September, 2019

Change the Weather History Date:

Monday, September 2, 2019

  Actual Average Record
Temperature  
Mean Temperature 63 °F 66 °F  
Max Temperature 69 °F 76 °F 91 °F (2010)
Min Temperature 57 °F 56 °F 38 °F (1967)
Degree Days  
Heating Degree Days 2 2  
Month to date heating degree days 3 4  
Since 1 July heating degree days 7 46  
Cooling Degree Days 0 3  
Month to date cooling degree days 0 6  
Year to date cooling degree days 580 454  
Growing Degree Days 14 (Base 50)    
Moisture  
Dew Point 61 °F    
Average Humidity 91    
Maximum Humidity 97    
Minimum Humidity 84    
Precipitation  
Precipitation 1.16 in 0.11 in 2.19 in (1899)
Month to date precipitation 1.26 0.22  
Year to date precipitation 27.55 24.29  
Snow  
Snow 0.00 in 0.00 in 0.00 in (2002)
Month to date snowfall 0.0 0.0  
Since 1 July snowfall 0.0 0.0  
Since 1 September snowfall 0.0 0.0  
Snow Depth 0.00 in    
Sea Level Pressure  
Sea Level Pressure 29.97 in    
Wind  
Wind Speed 10 mph (South)    
Max Wind Speed 21 mph    
Max Gust Speed 30 mph    
Visibility 8 miles    
Events Rain    
T = Trace of Precipitation, MM = Missing Value Source: NWS Daily Summary

Daily Weather History Graph

Daily Weather History Graph

Search for Another Location

Airport or City:

Astronomy

Sep. 02, 2019 Rise Set
Actual Time 6:16 AM EDT 7:27 PM EDT
Civil Twilight 5:46 AM EDT 7:57 PM EDT
Nautical Twilight 5:10 AM EDT 8:33 PM EDT
Astronomical Twilight 4:32 AM EDT 9:11 PM EDT
Moon 10:03 AM EDT (9/2) 9:38 PM EDT (9/2)
Length of Visible Light 14h 11m
Length of Day
13h 11m
Waxing Crescent, 15% of the Moon is Illuminated
Sep 2
Waxing Crescent
Sep 5
First Quarter
Sep 14
Full
Sep 21
Last Quarter
Sep 28
New

Hourly Weather History & Observations

Time (EDT) Temp. Dew Point Humidity Pressure Visibility Wind Dir Wind Speed Gust Speed Precip Events Conditions
12:54 AM 63.0 °F 57.9 °F 84% 30.14 in 9.0 mi South 6.9 mph - 0.09 in Rain Light Rain
1:54 AM 62.1 °F 57.9 °F 86% 30.12 in 10.0 mi South 6.9 mph - 0.03 in Rain Light Rain
2:54 AM 62.1 °F 59.0 °F 90% 30.09 in 6.0 mi South 9.2 mph - 0.06 in Rain Rain
3:54 AM 62.1 °F 59.0 °F 90% 30.07 in 7.0 mi South 13.8 mph 26.5 mph 0.11 in Rain Light Rain
4:54 AM 62.1 °F 59.0 °F 90% 30.05 in 10.0 mi South 12.7 mph 21.9 mph 0.06 in Rain Light Rain
5:54 AM 62.1 °F 57.9 °F 86% 30.04 in 10.0 mi South 13.8 mph 23.0 mph 0.02 in Rain Light Rain
6:54 AM 62.1 °F 57.9 °F 86% 30.02 in 9.0 mi South 17.3 mph 24.2 mph 0.07 in Rain Light Rain
7:54 AM 63.0 °F 59.0 °F 87% 30.01 in 8.0 mi South 16.1 mph 26.5 mph 0.06 in Rain Light Rain
8:54 AM 63.0 °F 60.1 °F 90% 30.00 in 9.0 mi South 17.3 mph 25.3 mph 0.07 in Rain Light Rain
9:54 AM 64.0 °F 60.1 °F 87% 29.99 in 8.0 mi South 16.1 mph 25.3 mph 0.06 in Rain Light Rain
10:54 AM 64.0 °F 61.0 °F 90% 29.97 in 8.0 mi South 20.7 mph 25.3 mph 0.05 in Rain Light Rain
11:17 AM 64.0 °F 61.0 °F 90% 29.96 in 5.0 mi South 17.3 mph 29.9 mph 0.03 in Rain Light Rain
11:54 AM 64.9 °F 61.0 °F 87% 29.96 in 6.0 mi South 16.1 mph 24.2 mph 0.11 in Rain Light Rain
12:54 PM 64.9 °F 62.1 °F 90% 29.94 in 4.0 mi South 16.1 mph 20.7 mph 0.20 in Rain Rain
1:51 PM 66.2 °F 62.6 °F 88% 29.93 in 10.0 mi South 12.7 mph - 0.06 in   Overcast
1:54 PM 66.0 °F 63.0 °F 90% 29.93 in 10.0 mi South 12.7 mph 19.6 mph 0.06 in   Overcast
2:17 PM 66.9 °F 63.0 °F 87% 29.92 in 10.0 mi South 13.8 mph - 0.00 in Rain Light Rain
2:25 PM 66.9 °F 63.0 °F 87% 29.91 in 10.0 mi South 12.7 mph 19.6 mph 0.00 in Rain Light Rain
2:54 PM 66.9 °F 63.0 °F 87% 29.91 in 10.0 mi South 11.5 mph - 0.00 in Rain Light Rain
3:41 PM 68.0 °F 63.0 °F 84% 29.90 in 10.0 mi South 10.4 mph - 0.02 in   Mostly Cloudy
3:54 PM 68.0 °F 64.0 °F 87% 29.90 in 10.0 mi South 11.5 mph - 0.02 in   Mostly Cloudy
4:54 PM 68.0 °F 64.0 °F 87% 29.90 in 10.0 mi South 11.5 mph - N/A   Overcast
5:08 PM 66.9 °F 64.0 °F 90% 29.91 in 1.2 mi West 8.1 mph - 0.00 in Rain Rain
5:16 PM 66.9 °F 64.0 °F 90% 29.91 in 0.8 mi WSW 5.8 mph - 0.18 in Rain Light Rain
5:19 PM 66.9 °F 64.0 °F 90% 29.91 in 4.0 mi West 8.1 mph - 0.18 in Rain Light Rain
5:28 PM 66.9 °F 64.0 °F 90% 29.91 in 10.0 mi NW 6.9 mph - 0.18 in   Overcast
5:38 PM 66.9 °F 63.0 °F 87% 29.92 in 10.0 mi North 9.2 mph - 0.18 in   Overcast
5:54 PM 66.0 °F 62.1 °F 87% 29.93 in 10.0 mi NNW 6.9 mph - 0.18 in   Overcast
6:54 PM 66.9 °F 62.1 °F 84% 29.94 in 10.0 mi Calm Calm - N/A   Scattered Clouds
7:54 PM 64.0 °F 62.1 °F 93% 29.96 in 10.0 mi East 3.5 mph - N/A   Scattered Clouds
8:54 PM 63.0 °F 60.1 °F 90% 29.97 in 10.0 mi SSE 3.5 mph - N/A   Scattered Clouds
9:41 PM 61.0 °F 59.0 °F 93% 29.97 in 2.5 mi Calm Calm - N/A   Scattered Clouds
9:54 PM 61.0 °F 59.0 °F 93% 29.97 in 9.0 mi SE 4.6 mph - N/A   Scattered Clouds
10:54 PM 60.1 °F 57.9 °F 93% 29.98 in 10.0 mi SE 3.5 mph - N/A   Clear
11:54 PM 59.0 °F 57.0 °F 93% 29.99 in 10.0 mi Calm Calm - N/A   Clear